Theta_e
311 311 311 311 311 310 311 310 311 311 311 310 311 311 312 312 312 312 312 312 313 313 313 312 312 312 304 295 294 301 314 309 305 314 313 305 300 299 294 295 301 302 306 308 313 314 313
311 311 310 310 310 310 310 310 310 310 310 310 310 311 311 312 312 312 312 312 312 312 312 312 312 311 300 290 302 303 303 302 301 299 301 306 300 300 295 295 298 298 299 303 305 305 307
311 310 310 310 309 309 309 310 310 310 311 311 312 312 311 311 312 312 312 312 312 312 312 313 313 308 299 296 305 304 304 300 300 300 298 301 305 300 298 294 298 297 294 297 299 299 300
310 310 310 310 309 309 309 309 309 310 310 311 311 311 310 310 311 312 313 313 313 313 314 314 313 306 295 305 305 303 304 302 303 302 301 302 301 298 297 298 298 294 293 291 298 300 301
310 310 310 310 310 309 308 308 309 309 309 310 310 311 309 310 310 311 312 312 313 315 314 314 305 300 294 310 304 307 304 300 301 302 301 304 297 294 295 292 288 291 290 291 295 301 301
310 310 310 310 309 309 308 308 308 308 309 309 309 310 309 309 310 311 311 312 312 311 312 311 308 296 297 296 302 305 305 303 299 298 296 294 291 289 287 288 284 287 288 292 292 298 300
309 309 309 309 309 309 309 309 308 309 309 309 309 309 310 310 310 310 307 300 295 293 294 292 294 295 297 301 304 301 303 300 299 295 288 290 285 284 289 291 292 291 289 290 294 299 299
309 309 309 309 309 308 308 308 308 309 308 309 309 309 309 311 310 310 302 296 296 296 288 297 296 297 300 301 295 298 302 294 291 286 289 286 284 289 291 291 291 289 287 287 292 296 294
308 308 308 308 308 308 309 308 308 308 308 308 308 308 309 310 309 302 298 300 301 297 287 292 297 297 299 298 294 294 298 294 289 286 285 284 287 292 290 289 288 288 287 288 289 293 294
307 308 308 308 308 308 308 308 308 308 308 308 309 309 309 309 301 298 297 303 301 297 281 289 293 297 298 297 293 301 300 295 289 285 286 284 289 288 288 287 288 283 291 292 291 288 284
307 307 307 307 308 308 308 308 308 307 308 308 308 309 309 308 298 297 301 301 300 294 271 290 293 301 297 292 295 297 302 296 289 288 286 283 285 285 285 287 290 286 291 291 290 288 285
306 306 306 306 306 307 308 308 307 308 308 309 309 309 308 302 297 301 303 300 296 279 270 287 293 291 290 292 293 297 297 301 299 292 289 286 291 288 287 290 289 291 288 288 288 285 279
306 306 306 306 306 306 307 307 307 308 308 308 309 308 306 304 296 300 299 293 279 273 288 285 287 290 289 288 290 292 291 290 288 283 284 289 287 290 291 285 288 286 280 275 276 276 279
306 306 307 307 307 307 307 307 307 307 308 308 307 306 303 304 301 300 294 284 275 281 285 291 290 289 284 288 288 290 289 286 291 290 286 283 280 287 291 287 284 282 281 276 274 276 279
306 306 306 307 307 307 307 307 307 307 307 306 305 296 297 301 303 298 288 278 275 284 289 288 288 284 283 287 287 287 286 287 291 292 285 283 283 293 293 294 290 285 280 284 279 281 278
306 306 306 306 307 307 307 307 307 307 306 306 294 294 297 302 301 294 284 283 285 291 292 290 283 286 281 284 284 284 285 291 290 294 294 288 281 290 292 292 291 287 290 279 277 274 274
308 307 307 308 307 307 307 307 307 307 306 304 294 293 300 301 300 289 278 283 289 294 293 289 286 285 285 284 284 283 285 290 293 291 293 288 283 285 289 285 282 284 283 284 281 280 276
308 308 308 308 308 308 308 307 307 306 305 301 290 287 300 299 286 282 279 288 293 292 294 292 291 288 286 286 284 285 285 289 295 294 287 289 284 280 284 289 291 287 285 285 278 279 280
307 307 308 308 308 307 308 307 307 306 305 300 290 291 300 297 278 279 285 289 292 291 291 291 289 290 290 287 283 286 289 294 295 292 289 289 282 277 278 283 290 286 288 287 287 284 282
307 307 307 307 307 307 307 307 307 306 305 299 292 285 288 288 287 282 283 286 287 294 292 292 289 291 287 287 289 286 287 291 294 294 297 294 283 280 274 280 285 284 287 289 286 281 283
307 308 307 308 308 308 308 307 307 305 305 295 289 283 287 280 284 286 285 288 286 287 293 293 288 288 287 284 285 283 287 289 292 294 291 289 281 283 284 286 287 286 285 286 286 287 283
308 308 308 308 308 308 308 308 308 306 304 294 285 285 288 287 289 288 286 284 286 289 289 288 287 289 288 285 287 285 287 287 285 289 291 290 283 285 283 287 287 285 287 288 288 289 288
308 308 308 308 308 307 307 308 308 307 301 289 290 291 289 286 286 286 286 288 288 290 291 293 292 290 287 289 292 292 292 291 290 286 288 289 286 284 279 285 286 283 286 288 289 291 290
309 309 308 308 307 307 308 308 308 308 302 296 293 292 289 282 285 285 289 289 288 290 289 292 292 288 292 296 294 292 290 290 290 289 290 285 284 285 280 283 276 287 295 293 291 292 293
308 309 309 308 308 308 307 307 308 307 307 298 297 294 289 283 287 287 290 288 289 290 289 292 292 295 294 290 286 283 285 289 290 293 289 290 287 282 279 280 285 289 291 291 291 292 299
308 308 308 308 308 308 307 306 308 308 307 302 298 297 292 287 283 291 287 290 288 288 289 290 294 293 290 285 283 280 279 284 285 287 294 293 290 284 283 279 277 286 291 295 296 288 298
308 308 308 307 307 308 307 306 307 307 307 304 299 298 295 288 288 288 287 287 292 292 289 288 290 288 288 281 278 281 280 287 281 283 285 287 286 282 281 280 285 289 292 296 286 288 298
307 306 305 305 306 306 306 306 306 306 307 305 299 299 296 290 291 291 292 289 291 292 288 288 286 286 284 282 282 281 283 285 285 287 287 285 284 284 284 282 278 291 292 292 294 299 299
305 305 304 305 304 304 305 305 305 305 307 306 298 300 301 294 292 295 295 297 297 296 294 292 286 286 287 284 283 286 284 286 285 279 291 284 288 284 284 284 289 290 294 301 302 300 299
Wind_Speed
15 16 16 16 16 16 16 17 17 17 18 18 19 19 19 20 20 20 21 21 21 20 20 18 15 12 4 4 14 9 23 19 12 6 6 14 14 6 10 6 5 16 8 6 11 13 12
15 15 16 16 17 17 17 17 18 18 18 19 19 21 22 22 22 23 22 21 21 20 20 18 13 8 4 7 8 6 8 9 6 6 6 10 7 7 4 7 15 2 6 18 14 14 8
15 16 16 17 18 19 20 19 20 20 20 19 20 22 24 25 26 25 24 23 21 18 19 16 10 5 7 24 5 4 9 7 5 7 5 4 12 7 7 1 6 5 9 10 11 5 8
16 17 18 18 19 20 21 21 21 21 22 21 21 22 25 25 26 26 26 26 26 21 14 6 5 4 10 5 6 10 8 9 9 11 9 11 7 5 5 2 4 4 5 16 14 14 6
16 16 17 17 17 18 19 20 20 20 20 21 21 21 24 25 25 25 26 26 27 16 1 9 5 3 13 9 5 8 9 7 6 6 7 8 4 5 2 4 3 5 15 15 11 6 8
16 17 17 18 18 18 19 19 19 20 20 20 21 20 22 24 24 24 23 23 21 7 6 7 4 2 7 11 15 11 17 5 6 5 3 6 4 5 3 7 18 11 15 4 4 4 10
17 17 18 18 19 19 19 19 19 20 21 21 22 22 22 22 24 22 10 6 9 7 3 5 15 10 22 12 15 14 2 8 7 3 6 5 4 16 19 14 10 7 4 2 2 8 13
17 18 18 19 20 20 20 20 20 21 21 22 22 23 25 23 24 17 3 2 3 7 9 13 10 9 18 9 7 11 5 4 3 4 3 0 19 7 4 4 11 10 9 8 6 11 4
17 17 18 19 19 19 20 21 22 22 22 22 22 23 24 24 24 2 2 5 3 3 2 11 6 7 11 4 5 9 5 3 4 5 4 6 8 11 11 5 9 7 11 10 7 9 16
17 18 19 20 19 20 20 21 22 23 23 23 22 22 21 25 4 4 6 5 7 2 2 6 7 5 8 5 4 4 7 5 2 6 5 7 8 11 7 15 15 15 4 8 5 5 10
18 18 19 19 19 20 21 22 22 24 24 23 23 23 20 13 4 4 7 7 7 4 3 11 7 9 21 5 12 8 4 4 8 10 4 7 4 2 9 8 7 8 12 9 12 10 3
17 18 18 19 21 21 21 22 24 24 23 24 23 22 19 1 1 9 8 8 4 7 4 7 8 13 15 10 11 8 5 2 1 5 8 8 7 6 7 7 5 4 4 9 10 3 5
17 18 18 19 21 21 21 23 24 25 25 25 27 25 12 3 5 3 4 5 5 5 5 6 15 14 14 7 11 6 10 6 3 1 5 6 13 19 9 5 5 4 3 1 1 4 13
17 18 18 19 20 21 22 23 24 25 26 28 27 20 4 5 3 4 4 6 6 4 5 9 13 14 5 7 12 9 7 6 2 0 3 3 3 8 10 12 8 7 10 6 7 5 5
18 18 19 20 20 21 22 24 25 27 28 29 20 4 2 4 3 3 6 6 6 3 8 13 9 4 4 7 4 7 5 3 6 5 1 4 4 1 1 2 7 3 5 7 3 3 2
19 19 20 20 20 22 22 22 24 27 29 27 3 4 4 3 5 5 6 3 3 5 11 8 4 4 5 6 6 5 4 2 4 2 1 3 3 4 5 3 5 6 5 4 1 5 5
18 19 19 19 20 20 21 22 23 24 28 21 4 4 4 3 5 6 3 5 7 8 7 5 3 5 5 5 3 4 5 5 2 6 3 3 2 4 2 2 2 1 2 2 4 5 5
18 18 19 20 19 20 21 22 23 23 23 7 3 3 4 3 5 0 0 6 11 8 7 6 3 3 3 6 4 4 4 4 2 1 5 3 2 4 7 7 10 4 4 3 3 8 6
19 19 19 19 19 21 20 22 23 22 19 4 3 3 4 6 3 4 6 5 4 11 11 5 6 3 2 4 5 5 5 4 4 2 4 2 3 2 7 3 3 3 4 6 3 2 9
17 19 19 18 19 19 18 19 22 23 21 1 3 5 5 5 1 1 5 4 10 11 10 10 7 5 5 10 7 8 9 7 2 5 11 2 4 5 6 0 2 5 4 4 3 4 6
17 16 18 17 17 17 18 19 18 22 23 3 4 2 1 5 4 7 4 6 8 10 5 5 5 5 14 7 10 5 5 5 6 11 8 8 5 4 8 12 13 14 13 15 13 7 7
17 17 16 17 16 16 17 17 16 17 19 5 3 4 4 6 5 5 4 3 10 12 4 7 6 16 15 10 13 22 17 6 7 7 2 1 4 2 11 12 15 17 16 17 19 15 15
17 16 16 16 16 15 15 16 15 13 8 3 3 3 1 6 4 2 4 7 13 16 6 7 14 17 15 16 12 18 17 18 14 6 4 3 2 2 7 9 11 15 23 20 20 15 9
18 17 16 15 15 15 15 13 13 9 5 2 2 1 3 6 4 4 10 16 15 17 13 11 11 9 9 22 19 12 12 15 11 16 12 5 4 4 6 7 9 6 10 15 19 14 12
19 18 17 16 15 14 14 13 12 11 4 2 2 1 2 6 4 14 6 6 12 11 8 11 11 13 10 7 5 7 5 1 2 2 12 16 9 3 3 3 6 6 8 5 4 3 6
20 20 18 17 15 14 13 15 13 10 10 2 2 3 1 4 5 4 9 9 8 8 5 6 8 4 6 3 3 4 3 4 3 6 6 11 14 6 3 4 4 3 9 11 12 6 9
19 19 19 17 16 16 15 16 15 13 12 4 3 4 2 4 6 3 5 3 5 5 5 6 8 8 4 5 4 3 4 5 5 7 6 3 0 10 8 5 3 5 15 11 8 1 12
17 17 18 18 18 18 16 16 15 15 13 6 3 5 3 4 11 9 7 5 4 4 4 5 6 4 4 7 4 4 3 3 5 3 7 3 5 2 3 3 3 11 13 1 3 6 10
15 16 17 18 18 20 17 14 15 16 13 10 3 2 4 4 9 10 16 19 20 20 6 3 3 1 2 2 3 3 3 3 5 4 4 4 2 3 2 2 6 9 14 3 9 6 11
Wind_Direction
24 21 18 15 13 8 3 0 357 355 351 347 343 338 333 329 327 324 321 315 311 310 308 307 305 313 358 20 253 283 320 325 327 18 205 211 202 185 192 204 191 246 239 243 248 255 251
24 17 17 13 10 7 2 358 356 352 348 341 337 334 331 330 326 323 318 311 307 306 303 299 299 299 286 281 247 275 305 329 351 351 341 210 210 204 215 201 205 139 223 244 255 266 252
18 15 12 11 4 3 359 356 354 349 345 340 336 332 331 330 328 324 319 312 304 304 296 292 287 271 261 247 251 279 318 275 244 263 283 273 255 223 155 328 251 259 290 280 237 207 242
13 10 6 5 3 357 355 353 350 346 344 339 337 333 332 332 329 323 318 314 311 315 305 280 204 222 252 270 264 292 277 286 226 225 218 252 264 256 180 312 327 222 186 243 261 227 222
7 3 360 359 357 356 354 351 347 345 341 339 337 333 331 330 327 320 315 311 312 327 301 136 121 168 269 292 267 244 185 277 286 214 207 239 154 189 122 157 347 236 238 230 263 211 207
3 0 357 356 354 353 350 348 346 340 338 336 335 333 329 330 329 324 316 311 299 314 127 158 151 296 285 311 301 291 303 274 269 278 209 194 171 159 164 162 211 222 231 277 209 227 209
2 358 355 355 352 350 347 344 341 339 337 336 337 335 331 332 330 328 334 6 9 338 55 214 265 257 268 267 287 288 339 326 280 213 188 194 157 211 206 217 265 317 345 274 336 219 217
0 357 355 354 352 349 345 343 340 339 338 337 336 336 333 329 328 333 96 40 267 250 313 284 253 240 253 258 299 289 150 166 341 312 335 287 229 212 160 193 235 259 268 272 276 269 276
359 357 356 354 351 348 345 343 341 340 338 335 333 332 332 330 324 41 294 244 332 31 284 291 260 256 269 138 259 282 156 150 217 258 238 222 259 216 230 228 242 229 231 251 246 308 298
359 358 358 354 349 346 344 343 342 340 337 334 330 330 334 333 34 319 287 289 333 139 21 288 338 294 338 274 268 293 195 135 256 241 220 220 241 258 270 234 239 256 220 257 253 205 257
360 359 359 355 351 347 342 339 339 338 334 331 328 329 329 328 268 331 266 347 318 63 17 325 307 318 331 335 303 346 287 124 241 222 184 244 281 252 232 231 210 244 233 238 225 244 235
358 358 358 356 352 348 341 339 337 336 332 327 326 325 326 145 312 240 337 309 56 50 291 330 329 320 335 313 325 324 313 114 251 280 221 232 255 235 218 250 234 237 218 229 233 150 250
355 354 354 354 350 348 344 340 337 336 332 328 325 323 313 188 233 50 350 31 39 91 326 330 321 320 311 317 327 349 314 282 209 102 31 327 230 235 220 231 259 167 85 312 168 187 231
354 352 352 351 348 347 346 343 338 337 333 329 323 317 213 219 260 30 45 48 60 248 284 300 325 307 317 11 318 328 321 339 275 115 12 307 278 185 208 200 197 181 165 183 184 179 224
353 352 350 350 348 347 346 343 341 340 338 335 327 343 290 270 184 90 61 42 204 288 316 322 316 302 323 328 289 346 321 332 24 8 251 243 259 261 86 177 141 202 169 193 15 224 242
351 351 350 348 345 346 346 345 342 340 341 341 354 343 285 338 112 62 69 271 243 283 300 312 269 256 316 314 336 350 303 346 359 26 6 286 297 325 358 16 224 160 196 88 6 217 236
349 348 348 346 344 344 345 344 345 344 342 339 25 26 298 29 60 50 124 237 282 294 345 308 264 281 291 309 283 281 289 312 328 321 323 286 145 291 339 245 213 348 184 206 169 178 221
347 347 348 348 346 345 346 344 344 349 345 12 1 43 306 54 38 35 85 299 303 318 342 284 239 264 276 285 281 256 257 253 204 318 321 297 229 231 227 260 279 249 287 136 168 233 249
344 344 346 347 347 349 348 345 346 348 357 320 356 285 313 79 62 318 299 294 293 345 331 313 294 277 319 281 306 265 242 255 276 243 245 316 270 309 322 12 40 223 244 191 185 274 241
340 340 343 345 346 347 348 346 344 345 352 48 20 356 328 41 137 156 311 279 337 339 289 329 276 293 346 298 263 269 272 279 263 223 253 175 225 220 193 353 17 275 307 266 209 187 267
333 332 338 340 343 344 346 345 346 345 346 89 25 311 233 315 333 323 271 269 329 344 271 294 281 321 316 290 302 257 233 278 261 271 266 171 239 214 254 261 266 265 263 263 245 231 221
325 327 329 333 338 340 340 339 345 350 346 69 48 12 344 282 268 293 299 299 314 318 289 295 265 308 310 269 270 287 278 241 249 302 201 170 265 251 284 256 249 255 247 249 251 247 255
316 316 322 323 327 331 333 335 343 354 27 47 318 311 276 271 280 284 289 319 309 304 279 274 303 305 299 291 298 286 268 266 246 239 269 200 242 265 249 278 287 266 229 225 236 230 221
309 314 314 317 321 324 324 330 335 341 78 144 249 232 294 277 289 275 293 297 294 304 294 292 299 293 292 309 303 270 247 249 239 244 221 222 199 224 284 289 245 271 38 204 230 237 229
311 307 310 310 313 316 325 322 326 327 303 161 206 234 282 285 259 293 297 306 302 298 271 294 294 279 315 308 328 340 348 121 132 224 207 213 221 256 247 239 277 282 44 11 353 211 54
307 309 311 313 315 316 321 319 317 318 314 200 217 175 246 302 265 320 318 293 298 315 298 268 287 324 8 10 352 2 332 315 305 318 307 254 215 204 220 268 298 47 328 326 316 225 14
307 309 312 313 318 316 317 314 311 316 310 295 231 183 200 264 270 219 235 290 288 274 279 292 326 344 27 357 21 356 309 328 330 318 336 349 210 232 242 255 260 355 317 303 210 301 328
309 313 321 321 319 319 314 310 308 310 307 304 223 186 185 239 276 243 253 223 256 229 268 301 355 355 344 16 4 342 303 312 295 272 324 326 313 325 303 299 342 1 329 14 345 325 321
323 317 315 317 319 314 312 313 309 302 298 303 236 195 175 227 266 281 260 249 241 243 262 268 246 220 235 345 351 303 289 296 299 308 350 337 344 276 302 311 248 272 290 26 25 332 339